Location: Austin
(30.3000°N, 97.7500°W)
Time: 02:40:41
(UTC-05:00)

USA 234 - Pass Details

Date: 01 October 2024
Orbit: 1098 x 1109 km, 123.0° (Epoch: 02 October)

Event Time Altitude Azimuth Distance (km) Brightness Sun altitude
Exits shadow 21:20:11 48° 46° (NE) 1,413 3.5 -27.6°
Maximum altitude 21:20:19 48° 42° (NE) 1,412 3.6 -27.6°
Drops below altitude 10° 21:26:30 10° 331° (NNW) 2,961 6.0 -28.9°
Sets 21:29:05 0° 326° (NW) 3,922 6.8 -29.5°
